Hourly Data Report for October 24, 2014

All times are specified in Local Standard Time (LST). Add 1 hour to adjust for Daylight Saving Time where and when it is observed.

CLYDE RIVER A
NUNAVUT

70°29'09.000" N
68°31'01.000" W
26.50 m
2400804
71090
YCY

Related Data

No related data is available for this station

Download Data

Hourly Data (October 2014)
Hourly Data Report for October 24, 2014
Temp Definition
°C
Dew Point Temp Definition
°C
Rel Hum Definition
%
Wind Dir Definition
10's deg

Wind Spd Definition
km/h
Visibility Definition
km
Stn Press Definition
kPa
Hmdx Definition


Wind Chill Definition


Weather Definition


TIME
00:00 Legend Double Dagger -7.3 -8.1 94 LegendMM LegendMM 0.2 99.63     Heavy Snow
01:00 Legend Double Dagger -6.6 -7.3 95 LegendMM LegendMM 0.2 99.76     Heavy Snow
02:00 Legend Double Dagger -6.2 -7.0 94 LegendMM LegendMM 0.2 99.92     Heavy Snow
03:00 Legend Double Dagger -6.2 -6.9 95 LegendMM LegendMM 0.2 100.13     Heavy Snow
04:00 Legend Double Dagger -6.4 -7.2 94 LegendMM LegendMM 0.2 100.28     Heavy Snow
05:00 Legend Double Dagger -6.5 -7.3 94 33 59 0.2 100.42   -18 Heavy Snow
06:00 Legend Double Dagger -6.7 -7.7 93 33 55 0.6 100.51   -18 Moderate Snow
07:00 Legend Double Dagger -6.7 -8.2 89 33 41 1.2 100.64   -16 Snow
08:00 Legend Double Dagger -6.9 -8.7 87 31 37 6.4 100.69   -16 Snow
09:00 Legend Double Dagger -7.2 -10.1 80 29 32 16.1 100.75   -16 Snow
10:00 Legend Double Dagger -7.2 -10.9 75 29 28 16.1 100.76   -16 Snow
11:00 Legend Double Dagger -9.6 -12.8 78 28 26 16.1 100.79   -18 Snow
12:00 Legend Double Dagger -9.4 -12.9 76 28 24 16.1 100.83   -18 Snow
13:00 Legend Double Dagger -9.4 -12.6 78 29 21 14.5 100.87   -17 Snow
14:00 Legend Double Dagger -8.9 -11.9 79 30 21 16.1 100.90   -17 Snow
15:00 Legend Double Dagger -8.5 -11.4 80 30 17 16.1 100.96   -15 Snow
16:00 Legend Double Dagger -8.9 -11.8 80 29 21 16.1 101.01   -17 Snow
17:00 Legend Double Dagger -8.8 -11.6 80 28 15 16.1 101.08   -15 Snow
18:00 Legend Double Dagger -9.2 -11.9 81 28 18 16.1 101.12   -16 Snow
19:00 Legend Double Dagger -9.8 -12.5 81 29 22 16.1 101.14   -18 LegendNANA
20:00 Legend Double Dagger -10.6 -13.4 80 29 18 16.1 101.19   -18 LegendNANA
21:00 Legend Double Dagger -10.7 -13.9 78 28 22 16.1 101.20   -19 LegendNANA
22:00 Legend Double Dagger -10.0 -13.5 76 30 28 16.1 101.19   -19 LegendNANA
23:00 Legend Double Dagger -10.0 -13.2 78 30 26 16.1 101.22   -19 Snow

Notes on Data Quality.

Legend

  • E = Estimated
  • M = Missing
  • NA = Not Available
  • ‡ = Partner data that is not subject to review by the National Climate Archives
Date modified: